(158049) = 2000 SX189

Discovered at Haleakala on 2000-09-22 by NEAT.

Orbit

Orbit type: Main Belt

Note: WebGL enabled browser required.

epoch2023-02-25.0
epoch JD2460000.5
perihelion date2020-11-21.48506
perihelion JD2459174.98506
argument of perihelion (°)299.61631
ascending node (°)25.19171
inclination (°)13.82303
eccentricity0.2430659
perihelion distance (AU)1.9455719
Tisserand w.r.t. Jupiter3.3
ΔV w.r.t. Earth (km/sec)9.7
semimajor axis (AU)2.5703321
mean anomaly (°)197.44444
mean daily motion (°/day)0.23917730
aphelion distance (AU)3.195
period (years)4.12
P-vector [x]0.80650861
P-vector [y]-0.42523606
P-vector [z]-0.41075317
Q-vector [x]0.58241006
Q-vector [y]0.69094024
Q-vector [z]0.42825239
absolute magnitude16.32
phase slope0.15
uncertainty0
referenceMPO 745323
observations used281
oppositions13
arc length (days)8268
first opposition used2000
last opposition used2023
residual rms (arc-secs)0.79
perturbers coarse indicatorM-v
perturbers precise indicator003Ek
first observation date used2000-09-22.0
last observation date used2023-05-13.0
computer nameMPCLINUX
Minimum Orbit Intersection Distances (in AU)
for orbit epoch: 2460000.5, reference: E2023-JE0
Mercury1.53231
Venus1.23044
Earth0.97506
Mars0.62149
Jupiter2.30744
Saturn6.12561
Uranus15.3288
Neptune27.3017

Observations

286 total observations over interval: 2000 09 22.42247 – 2023 05 13.196248
These data are available for download (format description).

Date (UT) J2000 RA J2000 Dec Magn Location Ref
2000 09 22.42247 02 47 45.66 +16 00 21.0 19.0 R 699 – Lowell Observatory-LONEOS MPS 30155
2000 09 22.44741 02 47 44.85 +16 00 30.0   699 – Lowell Observatory-LONEOS MPS 30155
2000 09 22.47240 02 47 44.13 +16 00 38.3   699 – Lowell Observatory-LONEOS MPS 30155
2000 09 22.49744 02 47 43.32 +16 00 46.4   699 – Lowell Observatory-LONEOS MPS 30155
2000 09 22.54256 02 47 42.32 +16 01 05.5 20.0   608 – Haleakala-AMOS MPS 20110
2000 09 22.55372 02 47 42.01 +16 01 09.2 20.3   608 – Haleakala-AMOS MPS 20110
2000 09 22.56458 02 47 41.64 +16 01 13.2 20.4   608 – Haleakala-AMOS MPS 20110
2000 09 24.42821 02 46 45.61 +16 11 47.5 19.8   704 – Lincoln Laboratory ETS, New Mexico MPS 20110
2000 09 24.44264 02 46 45.20 +16 11 53.8 20.0   704 – Lincoln Laboratory ETS, New Mexico MPS 20110
2000 09 24.45707 02 46 44.67 +16 11 59.5 20.2   704 – Lincoln Laboratory ETS, New Mexico MPS 20110
2000 10 02.44442 02 41 21.58 +16 53 26.2 19.0   704 – Lincoln Laboratory ETS, New Mexico MPS 21331
2000 10 02.45909 02 41 20.84 +16 53 31.1 19.2   704 – Lincoln Laboratory ETS, New Mexico MPS 21331
2000 10 02.47375 02 41 20.13 +16 53 34.8 19.3   704 – Lincoln Laboratory ETS, New Mexico MPS 21331
2000 10 25.29588 02 16 51.09 +18 10 30.4 18.6   704 – Lincoln Laboratory ETS, New Mexico MPS 21331
2000 10 25.30936 02 16 50.09 +18 10 31.5 18.7   704 – Lincoln Laboratory ETS, New Mexico MPS 21331
2000 10 25.32283 02 16 49.11 +18 10 33.2 18.9   704 – Lincoln Laboratory ETS, New Mexico MPS 21331
2000 10 25.33632 02 16 48.12 +18 10 35.9 18.7   704 – Lincoln Laboratory ETS, New Mexico MPS 21331
2000 10 25.34982 02 16 47.04 +18 10 36.5 18.7   704 – Lincoln Laboratory ETS, New Mexico MPS 21331
2000 11 01.22965 02 08 26.42 +18 21 42.9 18.8   704 – Lincoln Laboratory ETS, New Mexico MPS 21331
2000 11 01.24374 02 08 25.41 +18 21 44.9 18.6   704 – Lincoln Laboratory ETS, New Mexico MPS 21331
2000 11 01.25874 02 08 24.29 +18 21 46.2 18.9   704 – Lincoln Laboratory ETS, New Mexico MPS 21331
2000 11 01.27281 02 08 23.33 +18 21 47.7 19.3   704 – Lincoln Laboratory ETS, New Mexico MPS 21331
2000 11 03.21343 02 06 06.21 +18 24 08.2 18.4   704 – Lincoln Laboratory ETS, New Mexico MPS 21331
2000 11 03.22692 02 06 05.27 +18 24 08.6 18.7   704 – Lincoln Laboratory ETS, New Mexico MPS 21331
2000 11 03.24040 02 06 04.25 +18 24 09.8 18.9   704 – Lincoln Laboratory ETS, New Mexico MPS 21331
2000 11 03.25388 02 06 03.28 +18 24 10.3 18.6   704 – Lincoln Laboratory ETS, New Mexico MPS 21331
2000 11 03.26738 02 06 02.34 +18 24 10.7 18.1   704 – Lincoln Laboratory ETS, New Mexico MPS 21331
2000 11 20.22003 01 49 14.83 +18 37 24.6 19.1   704 – Lincoln Laboratory ETS, New Mexico MPS 30155
2000 11 20.23490 01 49 14.28 +18 37 26.7 19.4   704 – Lincoln Laboratory ETS, New Mexico MPS 30155
2000 11 20.24977 01 49 13.56 +18 37 26.5 19.7   704 – Lincoln Laboratory ETS, New Mexico MPS 30155
2000 11 20.26462 01 49 12.86 +18 37 27.2 19.2   704 – Lincoln Laboratory ETS, New Mexico MPS 30155
2000 11 20.27948 01 49 12.19 +18 37 28.3 19.5   704 – Lincoln Laboratory ETS, New Mexico MPS 30155
2003 04 05.34450 13 25 08.00 -06 30 03.3 20.3 V 691 – Steward Observatory, Kitt Peak-Spacewatch MPS 112105
2003 04 05.37194 13 25 06.28 -06 30 00.9 20.3 V 691 – Steward Observatory, Kitt Peak-Spacewatch MPS 112105
2003 04 05.39909 13 25 04.61 -06 29 58.2 20.2 V 691 – Steward Observatory, Kitt Peak-Spacewatch MPS 112105
2003 04 24.21746 13 05 37.42 -06 00 38.5 20.6 V 291 – LPL/Spacewatch II MPS 112105
2003 04 24.24096 13 05 35.94 -06 00 36.6 20.9 V 291 – LPL/Spacewatch II MPS 112105
2003 04 24.26425 13 05 34.53 -06 00 35.1 20.5 V 291 – LPL/Spacewatch II MPS 112105
2004 08 19.70498 01 41 32.22 -00 20 35.4 17.8 R E12 – Siding Spring Survey MPS 112105
2004 08 19.72183 01 41 32.26 -00 20 29.9 18.2 R E12 – Siding Spring Survey MPS 112105
2004 08 19.73868 01 41 32.41 -00 20 25.9 18.6 R E12 – Siding Spring Survey MPS 112105
2004 08 19.75552 01 41 32.52 -00 20 19.3 18.8 R E12 – Siding Spring Survey MPS 112105
2004 08 23.70599 01 41 52.12 -00 01 40.2 19.0 R E12 – Siding Spring Survey MPS 112105
2004 08 23.72072 01 41 52.09 -00 01 35.7 18.7 R E12 – Siding Spring Survey MPS 112105
2004 08 23.73545 01 41 52.03 -00 01 32.2 19.4 R E12 – Siding Spring Survey MPS 112105
2004 08 23.75016 01 41 52.04 -00 01 28.0 19.3 R E12 – Siding Spring Survey MPS 112105
2004 09 08.29597 01 37 36.98 +01 00 05.9 19.0   704 – Lincoln Laboratory ETS, New Mexico MPS 112578
2004 09 08.30769 01 37 36.58 +01 00 07.7 19.5   704 – Lincoln Laboratory ETS, New Mexico MPS 112578
2004 09 08.31938 01 37 36.15 +01 00 10.3 19.5   704 – Lincoln Laboratory ETS, New Mexico MPS 112578
2004 09 08.33143 01 37 35.70 +01 00 12.9 19.4   704 – Lincoln Laboratory ETS, New Mexico MPS 112578
2004 09 08.34304 01 37 35.38 +01 00 15.8 19.6   704 – Lincoln Laboratory ETS, New Mexico MPS 112578
2004 09 09.29553 01 37 02.44 +01 03 30.9 18.9   704 – Lincoln Laboratory ETS, New Mexico MPS 112578
2004 09 09.30740 01 37 02.01 +01 03 33.3 19.5   704 – Lincoln Laboratory ETS, New Mexico MPS 112578
2004 09 09.31922 01 37 01.62 +01 03 35.2 19.2   704 – Lincoln Laboratory ETS, New Mexico MPS 112578
2004 09 09.33107 01 37 01.11 +01 03 37.6 19.4   704 – Lincoln Laboratory ETS, New Mexico MPS 112578
2004 09 09.34272 01 37 00.66 +01 03 39.1 19.0   704 – Lincoln Laboratory ETS, New Mexico MPS 112578
2004 09 09.34291 01 37 00.64 +01 03 40.1 19.3   704 – Lincoln Laboratory ETS, New Mexico MPS 112578
2004 09 09.35403 01 37 00.24 +01 03 41.8 19.3   704 – Lincoln Laboratory ETS, New Mexico MPS 112578
2004 09 09.36534 01 36 59.83 +01 03 44.6 19.4   704 – Lincoln Laboratory ETS, New Mexico MPS 112578
2004 09 09.37666 01 36 59.36 +01 03 47.2 19.2   704 – Lincoln Laboratory ETS, New Mexico MPS 112578
2004 09 09.38812 01 36 58.91 +01 03 49.2 19.1   704 – Lincoln Laboratory ETS, New Mexico MPS 112578
2004 09 12.23767 01 35 08.77 +01 13 12.9 19.0   704 – Lincoln Laboratory ETS, New Mexico MPS 112636
2004 09 12.24941 01 35 08.32 +01 13 14.6 19.6   704 – Lincoln Laboratory ETS, New Mexico MPS 112637
2004 09 12.26114 01 35 07.71 +01 13 18.1 19.4   704 – Lincoln Laboratory ETS, New Mexico MPS 112637
2004 09 12.27288 01 35 07.23 +01 13 20.9 19.3   704 – Lincoln Laboratory ETS, New Mexico MPS 112637
2004 09 12.28462 01 35 06.76 +01 13 23.2 19.6   704 – Lincoln Laboratory ETS, New Mexico MPS 112637
2004 09 17.29050 01 31 13.15 +01 28 58.8 18.8   704 – Lincoln Laboratory ETS, New Mexico MPS 114167
2004 09 17.30284 01 31 12.48 +01 29 01.4 19.2   704 – Lincoln Laboratory ETS, New Mexico MPS 114167
2004 09 17.31498 01 31 11.83 +01 29 03.5 19.0   704 – Lincoln Laboratory ETS, New Mexico MPS 114167
2004 09 17.32723 01 31 11.16 +01 29 05.7 19.0   704 – Lincoln Laboratory ETS, New Mexico MPS 114167
2004 09 17.33941 01 31 10.50 +01 29 07.7 19.2   704 – Lincoln Laboratory ETS, New Mexico MPS 114167
2004 09 22.32130 01 26 34.13 +01 43 51.1 20.3 R 683 – Goodricke-Pigott Observatory, Tucson MPS 114167
2004 09 22.33465 01 26 33.26 +01 43 55.1 19.3 R 683 – Goodricke-Pigott Observatory, Tucson MPS 114167
2004 09 22.34807 01 26 32.43 +01 43 56.3 19.3 R 683 – Goodricke-Pigott Observatory, Tucson MPS 114167
2004 09 24.31444 01 24 33.20 +01 49 40.4 19.1 R 683 – Goodricke-Pigott Observatory, Tucson MPS 115196
2004 09 24.32779 01 24 32.39 +01 49 43.0 19.3 R 683 – Goodricke-Pigott Observatory, Tucson MPS 115196
2004 09 24.34119 01 24 31.40 +01 49 44.2 19.5 R 683 – Goodricke-Pigott Observatory, Tucson MPS 115196
2004 10 03.28299 01 14 37.18 +02 15 35.4 18.7 R 683 – Goodricke-Pigott Observatory, Tucson MPS 115616
2004 10 03.29636 01 14 36.29 +02 15 36.1 18.5 R 683 – Goodricke-Pigott Observatory, Tucson MPS 115616
2004 10 03.30974 01 14 35.29 +02 15 39.3 18.1 R 683 – Goodricke-Pigott Observatory, Tucson MPS 115616
2004 10 04.29283 01 13 26.58 +02 18 32.0 18.3 R 683 – Goodricke-Pigott Observatory, Tucson MPS 115616
2004 10 04.30620 01 13 25.53 +02 18 34.1 18.5 R 683 – Goodricke-Pigott Observatory, Tucson MPS 115616
2004 10 05.27591 01 12 17.51 +02 21 28.5 18.3 R 683 – Goodricke-Pigott Observatory, Tucson MPS 115616
2004 10 05.28929 01 12 16.53 +02 21 29.3 18.6 R 683 – Goodricke-Pigott Observatory, Tucson MPS 115616
2004 10 05.30265 01 12 15.45 +02 21 34.2 19.7 R 683 – Goodricke-Pigott Observatory, Tucson MPS 115616
2004 10 05.30432 01 12 15.32 +02 21 32.5 17.8 R 699 – Lowell Observatory-LONEOS MPS 115616
2004 10 05.32380 01 12 13.89 +02 21 35.5   699 – Lowell Observatory-LONEOS MPS 115616
2004 10 05.34327 01 12 12.46 +02 21 39.9   699 – Lowell Observatory-LONEOS MPS 115616
